Location: Hilton Head Island
(32.2163°N, 80.7526°W)
Time: 22:01:36
(UTC-05:00)

Vanguard 2 Rocket - Pass Details

Date: 23 February 2026
Orbit: 553 x 3286 km, 32.9° (Epoch: 7 March)

Event Time Altitude Azimuth Distance (km) Brightness Sun altitude
Rises 13:47:11 0° 271° (W) 7,258 11.7 44.9°
Reaches altitude 10° 13:52:09 10° 272° (W) 6,215 11.5 44.4°
Maximum altitude 14:11:53 88° 3° (N) 2,642 10.0 42.4°
Drops below altitude 10° 14:24:25 10° 94° (E) 4,206 10.1 40.9°
Sets 14:27:06 0° 95° (E) 4,901 10.4 40.5°
